Lid_Strength_Index
5 8 11 11 7 6 5 4 4 5 4 4 5 3 2 0 -0 -1 -1 -1 -1 -1 -2 -1 -1 -1 -1 -1 -1 -1 -1 -1
6 8 7 8 9 5 5 4 4 4 6 4 2 2 1 -0 -0 -0 -0 -1 -1 -1 -2 -1 -1 -1 -1 -1 -1 -1 -1 -1
7 7 6 5 5 5 6 5 4 4 6 5 2 1 0 0 -0 -0 -0 -1 -1 -1 -1 -1 -1 -1 -1 -1 -1 -1 -1 -1
8 7 5 5 4 5 5 4 4 5 5 5 1 1 0 -0 -0 -0 -0 -1 -1 -1 -1 -2 -1 -1 -1 -1 -1 -1 -1 -1
7 7 6 5 4 5 5 5 5 3 5 4 2 1 0 -0 -0 -0 -1 -1 -1 -1 -1 -1 -1 -1 -1 -1 -1 -1 -1 -1
6 7 7 4 4 4 4 5 3 2 5 6 2 1 0 0 -0 -0 -0 -0 -1 -1 -1 -1 -1 -1 -1 -1 -1 -1 -1 -1
7 6 6 4 5 4 3 4 3 3 3 2 1 1 1 1 1 0 0 -0 -1 -1 -1 -1 -1 -1 -1 -1 -1 -1 -1 -1
5 5 5 4 4 4 5 4 4 4 2 2 1 1 2 2 2 1 1 0 -0 -1 -1 -1 -1 -1 -2 -1 -1 -2 -2 -2
5 4 4 4 4 4 4 5 4 4 4 3 2 2 2 2 1 1 1 0 -0 -1 -1 -1 -1 -1 -1 -1 -1 -2 -2 -2
4 4 4 4 4 5 4 4 3 2 2 3 3 2 2 2 1 1 1 0 -0 -1 -1 -1 -1 -1 -1 -1 -1 -1 -1 -2
3 4 4 4 4 4 4 3 2 2 2 3 2 2 1 1 1 0 1 0 -0 -1 -1 -1 -1 -1 -1 -1 -1 -1 -1 -2
4 4 4 4 4 4 4 3 3 3 3 3 2 2 1 1 1 1 0 0 -0 -0 -1 -1 -1 -1 -1 -1 -1 -1 -1 -1
4 4 4 4 5 5 3 3 3 3 3 2 2 2 2 1 1 1 0 -0 -0 -0 -1 -1 -1 -1 -1 -1 -1 -1 -1 -2
5 4 4 4 7 4 3 3 3 3 3 2 2 2 1 1 1 0 0 0 -0 -0 -0 -0 -1 -1 -1 -1 -1 -1 -1 -1
7 4 5 5 7 4 3 3 4 3 3 3 2 2 1 1 1 0 0 0 0 -0 -0 -0 -1 -1 -1 -1 -1 -1 -1 -1
7 5 5 6 6 5 4 4 4 3 3 3 3 2 1 1 1 0 0 0 0 0 -0 -0 -0 -1 -0 -0 -1 -1 -1 -1
6 5 6 6 6 5 4 4 4 4 3 3 3 2 1 1 1 1 1 1 1 1 0 0 0 1 1 1 0 -0 -1 -1
6 5 6 6 6 5 5 4 4 4 3 3 3 2 1 1 1 1 1 1 1 1 0 0 0 0 0 0 0 -0 -1 -1
7 6 5 6 7 6 5 4 4 3 3 3 3 3 2 1 2 1 1 1 1 1 0 0 -0 0 0 -0 -0 0 0 0
7 8 10 6 10 7 6 5 4 4 3 3 3 2 2 1 1 2 1 1 1 1 1 0 -0 0 1 1 2 1 1 0